Overview Statistics Trail Chart Weather Telemetry Raw packets
 

This is the latest recevied weather packets stored in our database for station/object JF7BTK-10. If no packets are shown the sender has not sent any weather packets the latest 10 day(s).

<< 47 48 49 50 51 52 53 >>
Time Temp. Humidity Pressure Rain* Wind** Luminosity Snow
1788072951 21.67° C 76% 1005.5 hPa 0 mm - - -
1788072650 21.67° C 76% 1005.3 hPa 0 mm - - -
1788072351 21.67° C 76% 1005.2 hPa 0 mm - - -
1788072187 21.67° C 76% 1005.4 hPa 0 mm - - -
1788072051 21.67° C 75% 1005.2 hPa 0 mm - - -
1788071750 21.67° C 75% 1005.3 hPa 0 mm - - -
1788071451 22.22° C 74% 1005.2 hPa 0 mm - - -
1788071287 22.22° C 73% 1005.2 hPa 0 mm - - -
1788071150 22.22° C 73% 1005.3 hPa 0 mm - - -
1788070851 22.22° C 71% 1005.4 hPa 0 mm - - -
1788070550 22.22° C 71% 1005.4 hPa 0 mm - - -
1788070386 22.22° C 71% 1005.3 hPa 0 mm - - -
1788069651 22.22° C 72% 1005.3 hPa 0 mm - - -
1788069487 22.22° C 72% 1005.2 hPa 0 mm - - -
1788069351 22.22° C 74% 1005 hPa 0 mm - - -
1788068587 22.22° C 72% 1005 hPa 0 mm - - -
1788068151 22.22° C 75% 1005.1 hPa 0 mm - - -
1788067851 22.22° C 74% 1005.1 hPa 0 mm - - -
1788067687 22.22° C 74% 1005.1 hPa 0 mm - - -
1788067551 22.22° C 73% 1005.3 hPa 0 mm - - -
1788066786 22.78° C 71% 1005.5 hPa 0 mm - - -
1788066651 22.78° C 70% 1005.5 hPa 0 mm - - -
1788066050 23.33° C 70% 1005.4 hPa 0 mm - - -
1788065887 23.33° C 71% 1005.2 hPa 0 mm - - -
1788065750 22.78° C 71% 1005.1 hPa 0 mm - - -

* Rain latest hour (hover to see other rain measurements)
** Current wind speed in m/s (hover to see current wind gust speed)